Location: Gibsondale
(40.9931°N, 80.2478°W)
Time: 08:49:33
(UTC+00:00)

Okean-O - Pass Details

Date: 29 October 2020
Orbit: 638 x 641 km, 98.2° (Epoch: 26 November)

Event Time Altitude Azimuth Distance (km) Brightness Sun altitude
Rises 22:51:27 0° 130° (SE) 2,936 5.7 -6.6°
Reaches altitude 10° 22:54:04 10° 114° (ESE) 2,031 4.7 -7.1°
Maximum altitude 22:57:22 21° 66° (ENE) 1,447 3.9 -7.7°
Drops below altitude 10° 23:00:40 10° 18° (NNE) 2,041 4.9 -8.3°
Sets 23:03:18 0° 2° (N) 2,954 5.9 -8.8°
